weather.gov     
National Weather Service

Terminal Aerodrome Forecast
NWS Homepage
This page is being discontinued on March 12, 2014.
The same data is available at this site. Please update your bookmarks.
Thank you, and we apologize for the inconvenience.
Please send an email to SR-SRH.Webmaster@noaa.gov with any concerns.


Current Version
Previous Version:    01  02  03  04  05  06  07  08  09  10  11  12  13  14  
[Printable]
032
FTUS41 KBOX 011734
TAFBDL
TAF
KBDL 011734Z 0118/0224 01008KT 6SM -RA OVC010
     FM020000 01008KT P6SM OVC015
     FM020200 01007KT 6SM BR OVC010
     FM021400 01010KT P6SM OVC015
     FM022100 02009KT P6SM BKN040=


032
FTUS41 KBOX 011734
TAFBDL
TAF
KBDL 011734Z 0118/0224 01008KT 6SM -RA OVC010
     FM020000 01008KT P6SM OVC015
     FM020200 01007KT 6SM BR OVC010
     FM021400 01010KT P6SM OVC015
     FM022100 02009KT P6SM BKN040=




U.S. Dept. of Commerce
NOAA National Weather Service
1325 East West Highway
Silver Spring, MD 20910
E-mail: w-nws.webmaster@noaa.gov
Page last modified: May 16, 2007
NATIONAL WEATHER SERVICE: for Safety, for Work, for Fun - FOR LIFE